Weather History for Poplar Bluff, MO

Change the Weather History Date:

Tuesday, February 12, 2013

  Actual Average Record
Temperature  
Mean Temperature 39 °F -  
Max Temperature 48 °F 46 °F 79 °F (1938)
Min Temperature 30 °F 26 °F 0 °F (1981)
Degree Days  
Heating Degree Days 26    
Moisture  
Dew Point 32 °F    
Average Humidity 69    
Maximum Humidity 88    
Minimum Humidity 50    
Precipitation  
Precipitation 0.02 in - - ()
Sea Level Pressure  
Sea Level Pressure 30.05 in    
Wind  
Wind Speed 3 mph (NE)    
Max Wind Speed 9 mph    
Max Gust Speed -    
Visibility 10 miles    
Events Rain    
Averages and records for this station are not official NWS values.
T = Trace of Precipitation, MM = Missing Value Source: NWS Daily Summary

Daily Weather History Graph

Daily Weather History Graph

Search for Another Location

Airport:

Trip Planner

Search our weather history database for the weather conditions in past years. The results will help you decide how hot, cold, wet, or windy it might be!

Date:

Astronomy

Feb. 12, 2013 Rise Set
Actual Time 6:52 AM CST 5:38 PM CST
Civil Twilight 6:26 AM CST 6:05 PM CST
Nautical Twilight 5:55 AM CST 6:36 PM CST
Astronomical Twilight 5:25 AM CST 7:06 PM CST
Moon 7:55 AM CST (2/12) 8:33 PM CST (2/12)
Length of Visible Light 11h 39m
Length of Day
10h 46m
Waxing Crescent, 7% of the Moon is Illuminated
Feb 12
Waxing Crescent
Feb 17
First Quarter
Feb 25
Full
Mar 4
Last Quarter
Mar 11
New

Hourly Weather History & Observations

Time (CST) Temp. Windchill Dew Point Humidity Pressure Visibility Wind Dir Wind Speed Gust Speed Precip Events Conditions
12:53 AM 34.0 °F - 28.9 °F 82% 30.16 in 10.0 mi Calm Calm - N/A   Clear
1:53 AM 33.1 °F 30.0 °F 28.0 °F 82% 30.17 in 10.0 mi NW 3.5 mph - N/A   Clear
2:53 AM 32.0 °F - 28.0 °F 85% 30.16 in 10.0 mi Calm Calm - N/A   Clear
3:53 AM 33.1 °F - 28.0 °F 82% 30.16 in 10.0 mi Calm Calm - N/A   Clear
4:53 AM 32.0 °F 27.5 °F 28.0 °F 85% 30.15 in 10.0 mi NNW 4.6 mph - N/A   Clear
5:53 AM 30.0 °F - 27.0 °F 88% 30.14 in 10.0 mi Calm Calm - N/A   Clear
6:53 AM 30.0 °F 26.5 °F 26.1 °F 85% 30.13 in 10.0 mi North 3.5 mph - N/A   Clear
7:53 AM 35.1 °F - 28.0 °F 76% 30.14 in 10.0 mi Calm Calm - N/A   Clear
8:53 AM 42.1 °F 37.7 °F 28.9 °F 60% 30.15 in 10.0 mi NE 6.9 mph - N/A   Clear
9:53 AM 45.0 °F 40.1 °F 30.9 °F 58% 30.11 in 10.0 mi NE 9.2 mph - N/A   Clear
10:53 AM 46.0 °F 42.5 °F 33.1 °F 61% 30.13 in 10.0 mi NE 6.9 mph - N/A   Clear
11:53 AM 48.0 °F - 32.0 °F 54% 30.13 in 10.0 mi ENE 6.9 mph - N/A   Clear
12:53 PM 48.0 °F - 33.1 °F 56% 30.10 in 10.0 mi NE 5.8 mph - N/A   Clear
1:53 PM 48.9 °F - 33.1 °F 54% 30.04 in 10.0 mi ENE 8.1 mph - N/A   Scattered Clouds
2:53 PM 48.9 °F - 30.9 °F 50% 29.99 in 10.0 mi ENE 8.1 mph - N/A   Clear
3:53 PM 48.9 °F - 35.1 °F 59% 30.00 in 10.0 mi NNE 4.6 mph - N/A   Overcast
4:53 PM 48.0 °F - 34.0 °F 58% 29.98 in 10.0 mi ENE 6.9 mph - N/A   Overcast
5:53 PM 46.9 °F - 35.1 °F 63% 29.96 in 10.0 mi ENE 4.6 mph - N/A   Overcast
6:53 PM 46.0 °F 43.1 °F 35.1 °F 66% 29.94 in 10.0 mi NE 5.8 mph - N/A   Overcast
7:53 PM 45.0 °F 41.8 °F 35.1 °F 68% 29.91 in 10.0 mi NE 5.8 mph - N/A   Overcast
8:53 PM 45.0 °F 40.1 °F 35.1 °F 68% 29.89 in 10.0 mi North 9.2 mph - N/A   Overcast
9:53 PM 44.1 °F 40.8 °F 35.1 °F 71% 29.90 in 10.0 mi North 5.8 mph - N/A   Overcast
10:53 PM 45.0 °F 41.8 °F 34.0 °F 65% 29.91 in 10.0 mi North 5.8 mph - 0.00 in Rain Light Rain
11:43 PM 42.8 °F - 35.6 °F 76% 29.91 in 8.0 mi Calm Calm - 0.02 in Rain Light Rain
11:53 PM 43.0 °F 41.3 °F 35.1 °F 74% 29.92 in 8.0 mi ENE 3.5 mph - 0.02 in Rain Light Rain